Home > Time Zones > World Clock > Weather > Palau > Koror > Past weeks

Flag for Palau Weather past 2 weeks in Koror, Palau

Now
79 °F

Partly cloudy.


Feels Like: 83 °F
Forecast: 78 / 85 °F
Wind: No wind

Location: Koror / Palau Island


UV Index: 10 (Very high)

Visibility: 15 mi


Pressure: 29.77 "Hg

Humidity: 94%

Dew point: 77 °F

Location of KororLocation

Historic Weather in Koror

°F

Koror temperature yesterday

Maximum temperature yesterday: 88 °F (at 11:50 AM)
Minimum temperature yesterday: 77 °F (at 12:56 AM)
Average temperature yesterday: 82 °F

Past Weeks' High & Low Weather Summary

 TemperatureHumidityPressure
High88 °F (Apr 4, 11:50 AM)100% (Apr 6, 1:55 AM)29.86 "Hg (Apr 6, 1:55 AM)
Low75 °F (Apr 6, 1:55 AM)70% (Apr 11, 11:50 AM)29.63 "Hg (Apr 7, 2:58 AM)
Average82 °F88%29.76 "Hg
* Reported Apr 3 11:55 PM — Apr 18 11:55 PM, Koror, Weather by CustomWeather, © 2014

Note: Actual official high and low records may vary slightly from our data, if they occured in-between our weather recording intervals... More about our weather records

Advertising

Historic Weather Conditions — Data for Previous 24 hours

 ConditionsComfort  
Time TempWeatherWind HumidityBarometerVisibility
11:55 PM
Apr 18
79 °FPartly cloudy.No wind100%29.79 "Hg15 mi
10:57 PM79 °FPartly cloudy.No wind100%29.80 "Hg15 mi
9:56 PM81 °FPartly cloudy.No wind94%29.80 "Hg15 mi
8:50 PM81 °FPartly cloudy.No wind94%29.79 "Hg15 mi
7:59 PM82 °FPartly cloudy.No wind89%29.78 "Hg15 mi
6:54 PM82 °FPartly cloudy.No wind89%29.77 "Hg15 mi
5:51 PM84 °FBroken clouds.No wind84%29.75 "Hg15 mi
4:58 PM86 °FBroken clouds.No wind75%29.74 "Hg15 mi
3:50 PM86 °FBroken clouds.8 mph75%29.75 "Hg15 mi
2:50 PM86 °FPartly sunny.12 mph75%29.75 "Hg15 mi
1:50 PM88 °FPartly sunny.10 mph70%29.78 "Hg15 mi
12:50 PM88 °FPartly sunny.12 mph70%29.78 "Hg15 mi
11:50 AM88 °FBroken clouds.10 mph75%29.80 "Hg15 mi
10:50 AM86 °FPartly sunny.10 mph79%29.82 "Hg15 mi
9:50 AM86 °FBroken clouds.7 mph79%29.83 "Hg15 mi
8:50 AM84 °FBroken clouds.8 mph79%29.82 "Hg15 mi
7:50 AM82 °FBroken clouds.5 mph89%29.80 "Hg15 mi
6:57 AM81 °FBroken clouds.No wind94%29.80 "Hg15 mi
5:57 AM79 °FBroken clouds.3 mph100%29.77 "Hg15 mi
4:56 AM79 °FPassing clouds.No wind94%29.77 "Hg15 mi
3:59 AM79 °FPassing clouds.No wind100%29.76 "Hg15 mi
2:57 AM77 °FPassing clouds.3 mph100%29.76 "Hg15 mi
1:51 AM79 °FPassing clouds.No wind94%29.77 "Hg15 mi
Weather by CustomWeather, © 2014

See weather overview